Regional Weather Roundup
Issued by NWS Goodland, KS

Home | Current Version | Previous Version | Graphics & Text | Print | Product List | Glossary On
Versions: 1 2 3 4 5 6 7 8 9 10 11 12 13 14 15 16 17 18 19 20 21 22 23 24 25 26 27 28 29 30 31 32 33 34 35 36 37 38 39 40 41 42 43 44 45 46 47 48 49 50
000
ASUS43 KGLD 281559
RWRGLD

GOODLAND FORECAST AREA HOURLY WEATHER ROUNDUP
NATIONAL WEATHER SERVICE GOODLAND KS
1000 AM MDT WED SEP 28 2016

...OFFICIAL OBSERVATIONS...

CITY           SKY/WX    TMP DP  RH WIND       PRES   REMARKS
GOODLAND KS    SUNNY     72  42  34 N5        30.26R
HILL CITY KS   SUNNY     68  45  43 NE6       30.22R
IMPERIAL NEB   SUNNY     69  41  36 N8        30.26R
MCCOOK NEB     SUNNY     66  46  48 CALM      30.23R
AKRON CO       SUNNY     66  35  31 NW5       30.33R
BURLINGTON CO  SUNNY     70  37  29 CALM      30.29R
LIMON CO       SUNNY     73  29  19 MISG      30.35R
$$

...UNOFFICIAL OBSERVATIONS...

CITY           SKY/WX    TMP DP  RH WIND       PRES   REMARKS
COLBY KS       SUNNY     72  46  40 N8        30.26R
LENORA KS        N/A     66  32  28 MISG        N/A
NORTON KS      SUNNY     68  34  28 NE9       30.20S
SHARON SPRINGS   N/A     73  44  35 CALM        N/A
KIT CARSON CO    N/A     71  41  34 MISG        N/A
$$



USA.gov is the U.S. government's official web portal to all federal, state and local government web resources and services.